Baku airport (UBBB)

baku-airport

Baku International Airport

Heydar Aliyev International Airport is the main international airport in Azerbaijan located 20 km (12 mi) northeast of the capital Baku. The airport is the home of Azerbaijan Airlines, the national flag carrier. It is the busiest airport in Azerbaijan and of the Caucasus.

ICAO: UBBB, IATA: GYD

Charts: Jeppesen

Sceneries: freeware demos w. reduced resolution

 fs9     fsx     Prepar

payware: http://www.drzewiecki-design.net/

METAR:

UBBB 142000Z 34004KT CAVOK 19/17 Q1011 R88/CLRD// NOSIG

TAF TAF UBBB 141716Z 1418/1518 VRB04KT CAVOK TX30/1510Z TN18/1501Z TEMPO 1420/1502 14006KT 4000 BR SCT006 BECMG 1503/1505 18010KT TEMPO 1505/1514 15016KT FEW015